• In Russia
  • List of Countries
  • For 7 days
  • Water Temperature
  • Satellite Maps
  • Weather Map
  • Weather Widgets
  • user-avatar
    Login

    Hourly Weather Wien

    Today, 5 December, Monday

    Time Temperature Precipitation Wind Pressure Humidity
    00:00 -3°C° 0 mm 2 mps 754 mmHg 77%
    01:00 -4°C° 0 mm 2 mps 754 mmHg 76%
    02:00 -4°C° 0 mm 2 mps 754 mmHg 75%
    03:00 -4°C° 0 mm 2 mps 754 mmHg 74%
    04:00 -5°C° 0 mm 3 mps 754 mmHg 73%
    05:00 -5°C° 0 mm 3 mps 754 mmHg 73%
    06:00 -5°C° 0 mm 3 mps 754 mmHg 73%
    07:00 -4°C° 0 mm 2 mps 754 mmHg 74%
    08:00 -4°C° 0 mm 3 mps 754 mmHg 69%
    09:00 -2°C° 0 mm 3 mps 754 mmHg 65%
    10:00 -1°C° 0 mm 3 mps 754 mmHg 61%
    11:00 0°C° 0 mm 3 mps 753 mmHg 58%
    12:00 +1°C° 0 mm 3 mps 753 mmHg 56%
    13:00 +2°C° 0 mm 2 mps 753 mmHg 54%
    14:00 +1°C° 0 mm 2 mps 753 mmHg 61%
    15:00 -2°C° 0 mm 2 mps 752 mmHg 68%
    16:00 -1°C° 0 mm 1 mps 752 mmHg 75%
    17:00 -1°C° 0 mm 1 mps 752 mmHg 77%
    18:00 -2°C° 0 mm 1 mps 752 mmHg 79%
    19:00 -2°C° 0 mm 1 mps 752 mmHg 80%
    20:00 -2°C° 0 mm 1 mps 752 mmHg 81%
    21:00 -2°C° 0 mm 1 mps 752 mmHg 82%
    22:00 -2°C° 0 mm 1 mps 751 mmHg 83%
    23:00 -2°C° 0 mm 1 mps 751 mmHg 83%

    Tomorrow, 6 December, Tuesday

    Time Temperature Precipitation Wind Pressure Humidity
    00:00 -2°C° 0 mm 1 mps 751 mmHg 84%
    01:00 -3°C° 0 mm 0 mps 751 mmHg 84%
    02:00 -2°C° 0 mm 1 mps 751 mmHg 83%
    03:00 -2°C° 0 mm 1 mps 751 mmHg 83%
    04:00 -2°C° 0 mm 1 mps 751 mmHg 82%
    05:00 -2°C° 0 mm 1 mps 751 mmHg 80%
    06:00 -2°C° 0 mm 1 mps 751 mmHg 78%
    07:00 -4°C° 0 mm 2 mps 751 mmHg 76%
    08:00 -2°C° 0 mm 2 mps 752 mmHg 69%
    09:00 -1°C° 0 mm 2 mps 752 mmHg 62%
    10:00 0°C° 0 mm 3 mps 752 mmHg 55%
    11:00 +1°C° 0 mm 3 mps 752 mmHg 52%
    12:00 +2°C° 0 mm 3 mps 752 mmHg 49%
    13:00 +3°C° 0 mm 4 mps 752 mmHg 46%
    14:00 +2°C° 0 mm 3 mps 753 mmHg 51%
    15:00 0°C° 0 mm 3 mps 753 mmHg 56%
    16:00 -1°C° 0 mm 3 mps 753 mmHg 62%
    17:00 -2°C° 0 mm 3 mps 754 mmHg 65%
    18:00 -2°C° 0 mm 3 mps 754 mmHg 68%
    19:00 -4°C° 0 mm 3 mps 755 mmHg 71%
    20:00 -4°C° 0 mm 3 mps 755 mmHg 73%
    21:00 -3°C° 0 mm 2 mps 755 mmHg 75%
    22:00 -3°C° 0 mm 2 mps 755 mmHg 78%
    23:00 -3°C° 0 mm 2 mps 756 mmHg 79%

    Day after tomorrow, 7 December, Wednesday

    Time Temperature Precipitation Wind Pressure Humidity
    00:00 -3°C° 0 mm 2 mps 756 mmHg 80%
    01:00 -3°C° 0 mm 2 mps 756 mmHg 82%
    02:00 -3°C° 0 mm 2 mps 756 mmHg 83%
    03:00 -3°C° 0 mm 2 mps 756 mmHg 85%
    04:00 -2°C° 0 mm 1 mps 756 mmHg 87%
    05:00 -2°C° 0 mm 1 mps 757 mmHg 88%
    06:00 -2°C° 0 mm 1 mps 757 mmHg 89%
    07:00 -2°C° 0 mm 1 mps 757 mmHg 90%
    08:00 -1°C° 0 mm 1 mps 758 mmHg 84%
    09:00 0°C° 0 mm 1 mps 758 mmHg 78%
    10:00 +2°C° 0 mm 1 mps 758 mmHg 72%
    11:00 +2°C° 0 mm 1 mps 758 mmHg 70%
    12:00 +2°C° 0 mm 2 mps 758 mmHg 67%
    13:00 +3°C° 0 mm 2 mps 758 mmHg 65%
    14:00 +2°C° 0 mm 2 mps 758 mmHg 73%
    15:00 -1°C° 0 mm 2 mps 758 mmHg 80%
    16:00 -2°C° 0 mm 2 mps 758 mmHg 88%
    17:00 -2°C° 0 mm 2 mps 758 mmHg 89%
    18:00 -3°C° 0 mm 2 mps 758 mmHg 89%
    19:00 -3°C° 0 mm 2 mps 758 mmHg 89%
    20:00 -3°C° 0 mm 2 mps 758 mmHg 89%
    21:00 -3°C° 0 mm 2 mps 758 mmHg 89%
    22:00 -3°C° 0 mm 2 mps 758 mmHg 89%
    23:00 -3°C° 0 mm 2 mps 758 mmHg 89%

    8 December, Thursday

    Time Temperature Precipitation Wind Pressure Humidity
    00:00 -3°C° 0 mm 2 mps 758 mmHg 89%
    01:00 -3°C° 0 mm 2 mps 758 mmHg 88%
    02:00 -4°C° 0 mm 2 mps 757 mmHg 89%
    03:00 -4°C° 0 mm 2 mps 757 mmHg 89%
    04:00 -2°C° 0 mm 1 mps 757 mmHg 89%
    05:00 -2°C° 0 mm 1 mps 757 mmHg 89%
    06:00 -2°C° 0 mm 1 mps 757 mmHg 90%
    07:00 -2°C° 0 mm 1 mps 757 mmHg 90%
    08:00 -1°C° 0 mm 1 mps 757 mmHg 84%
    09:00 0°C° 0 mm 1 mps 756 mmHg 78%
    10:00 +2°C° 0 mm 1 mps 756 mmHg 73%
    11:00 +3°C° 0 mm 1 mps 756 mmHg 69%
    12:00 +4°C° 0 mm 1 mps 756 mmHg 66%
    13:00 +5°C° 0 mm 1 mps 755 mmHg 62%
    14:00 +3°C° 0 mm 1 mps 755 mmHg 70%
    15:00 +1°C° 0 mm 1 mps 755 mmHg 78%
    16:00 0°C° 0 mm 1 mps 755 mmHg 86%
    17:00 0°C° 0 mm 1 mps 755 mmHg 85%
    18:00 0°C° 0 mm 1 mps 755 mmHg 84%
    19:00 0°C° 0 mm 1 mps 755 mmHg 82%
    20:00 0°C° 0 mm 1 mps 755 mmHg 81%
    21:00 0°C° 0 mm 1 mps 754 mmHg 79%
    22:00 0°C° 0 mm 1 mps 754 mmHg 77%
    23:00 +1°C° 0 mm 1 mps 754 mmHg 74%

    9 December, Friday

    Time Temperature Precipitation Wind Pressure Humidity
    00:00 +1°C° 0 mm 1 mps 754 mmHg 70%
    01:00 +2°C° 0 mm 1 mps 754 mmHg 66%
    02:00 +2°C° 0 mm 1 mps 754 mmHg 64%
    03:00 +2°C° 0 mm 1 mps 754 mmHg 62%
    04:00 +1°C° 0 mm 2 mps 754 mmHg 60%
    05:00 +1°C° 0 mm 2 mps 753 mmHg 59%
    06:00 +1°C° 0 mm 2 mps 753 mmHg 57%
    07:00 0°C° 0 mm 3 mps 753 mmHg 55%
    08:00 +2°C° 0 mm 3 mps 753 mmHg 51%
    09:00 +4°C° 0 mm 2 mps 754 mmHg 47%
    10:00 +6°C° 0 mm 2 mps 754 mmHg 44%
    11:00 +6°C° 0 mm 2 mps 753 mmHg 45%
    12:00 +7°C° 0 mm 2 mps 753 mmHg 45%
    13:00 +8°C° 0 mm 2 mps 753 mmHg 46%
    14:00 +7°C° 0 mm 2 mps 753 mmHg 51%
    15:00 +4°C° 0 mm 3 mps 753 mmHg 57%
    16:00 +3°C° 0 mm 3 mps 753 mmHg 62%
    17:00 +3°C° 0 mm 3 mps 753 mmHg 63%
    18:00 +2°C° 0 mm 3 mps 753 mmHg 63%
    19:00 +2°C° 0 mm 3 mps 753 mmHg 64%
    20:00 +3°C° 0 mm 2 mps 753 mmHg 66%
    21:00 +3°C° 0 mm 2 mps 753 mmHg 68%
    22:00 +3°C° 0 mm 2 mps 753 mmHg 70%
    23:00 +2°C° 0 mm 2 mps 752 mmHg 71%

    10 December, Saturday

    Time Temperature Precipitation Wind Pressure Humidity
    00:00 +3°C° 0 mm 1 mps 752 mmHg 72%
    01:00 +3°C° 0 mm 1 mps 752 mmHg 73%
    02:00 +3°C° 0 mm 1 mps 751 mmHg 74%
    03:00 +3°C° 0 mm 1 mps 751 mmHg 75%
    04:00 +3°C° 0 mm 1 mps 750 mmHg 75%
    05:00 +3°C° 0 mm 1 mps 750 mmHg 74%
    06:00 +3°C° 0 mm 1 mps 750 mmHg 73%
    07:00 +3°C° 0 mm 1 mps 750 mmHg 72%
    08:00 +4°C° 0 mm 1 mps 750 mmHg 65%
    09:00 +6°C° 0 mm 1 mps 750 mmHg 58%
    10:00 +7°C° 0 mm 2 mps 750 mmHg 50%
    11:00 +8°C° 0 mm 1 mps 750 mmHg 50%
    12:00 +9°C° 0 mm 1 mps 749 mmHg 49%
    13:00 +10°C° 0 mm 1 mps 749 mmHg 48%
    14:00 +8°C° 0 mm 1 mps 749 mmHg 55%
    15:00 +6°C° 0 mm 1 mps 749 mmHg 61%
    16:00 +4°C° 0 mm 1 mps 748 mmHg 68%
    17:00 +4°C° 0 mm 1 mps 748 mmHg 66%
    18:00 +4°C° 0 mm 1 mps 748 mmHg 65%
    19:00 +4°C° 0 mm 1 mps 748 mmHg 64%
    20:00 +3°C° 0 mm 1 mps 748 mmHg 65%
    21:00 +3°C° 0 mm 1 mps 748 mmHg 65%
    22:00 +3°C° 0 mm 1 mps 748 mmHg 66%
    23:00 +3°C° 0 mm 1 mps 747 mmHg 67%
    Show more